Theta_e
317 320 320 320 322 325 326 327 327 327 329 321 318 318 319 321 319 321 322 321 322 320 319 320 320 320 320 320 321 321 321 321 321 319 325 338 327 322 333 333 335 337 340 342 336 333 333 334 338 340 341 341 342 342 342 342 341 342 339 337 338 338 339 338 338 338 338 340 340 340 340 340 340 340 339 338 338 338 338 337 339 339 340 340 341 341 340 340 339 338 337 337 337 337 337 335 333
321 326 324 324 324 325 328 326 323 323 322 317 316 317 318 320 320 321 322 320 321 320 320 320 320 321 320 320 320 321 321 321 321 322 330 333 324 326 333 330 334 336 340 343 336 333 333 334 337 338 340 341 342 342 342 341 341 341 338 338 339 339 339 339 338 337 339 341 341 340 340 341 341 340 340 339 339 339 338 338 339 339 340 340 340 340 340 339 338 337 336 335 336 337 336 335 333
321 326 325 324 325 325 328 326 324 321 318 315 314 319 319 320 320 320 321 320 321 320 320 319 321 321 320 321 320 322 322 322 321 321 330 330 329 329 327 327 333 336 340 343 338 334 333 334 336 337 339 341 341 342 342 341 341 340 339 339 339 339 339 339 337 337 341 341 341 341 340 341 340 340 340 339 338 338 337 337 339 339 340 339 340 339 338 337 336 335 335 334 335 336 335 333 331
318 324 324 324 326 326 329 327 326 321 316 315 313 319 321 319 320 320 320 320 321 320 320 320 322 321 320 321 320 322 320 322 321 320 329 331 333 330 323 324 332 335 338 344 340 335 333 333 335 336 339 340 341 341 341 341 340 340 339 339 338 339 338 338 337 337 340 340 341 341 341 341 340 340 339 339 338 337 336 337 338 339 339 338 338 337 336 336 335 333 333 334 334 334 333 331 326
321 326 324 323 327 326 328 324 323 319 315 317 314 319 321 319 320 320 320 320 321 321 320 320 321 321 321 321 320 321 320 322 321 320 327 330 332 330 324 322 330 335 336 343 342 337 334 333 334 335 338 339 339 340 340 340 339 340 339 338 337 337 337 337 338 338 339 340 341 341 341 341 340 340 339 338 337 336 336 337 337 337 337 337 336 335 334 334 333 332 331 332 332 332 330 326 320
325 327 323 322 326 324 324 321 320 319 319 322 318 319 320 319 319 319 321 321 321 321 320 320 320 321 321 321 321 321 321 321 322 322 326 330 329 328 325 321 328 334 335 341 343 339 336 334 333 334 338 339 338 339 339 339 339 339 338 337 336 336 336 337 338 339 340 340 340 341 341 341 340 339 338 336 335 334 334 335 335 336 336 335 334 333 332 331 331 330 329 329 329 328 325 319 311
324 327 326 323 324 322 322 320 320 320 320 323 319 318 319 318 320 319 321 321 322 320 319 321 320 321 321 321 321 322 322 319 325 327 324 325 323 325 325 321 327 335 336 339 343 341 338 337 334 333 337 339 339 340 338 338 338 339 338 337 337 336 336 338 339 340 340 341 340 340 341 340 340 339 337 335 335 334 332 333 333 334 334 333 332 331 331 330 329 328 327 327 325 322 317 310 303
322 327 327 324 325 325 323 322 323 322 320 321 319 318 319 319 320 320 320 321 321 321 320 320 319 320 321 321 321 322 322 319 324 325 321 319 321 323 324 323 326 334 337 338 342 341 340 339 336 334 335 338 340 341 339 338 338 338 338 338 338 337 337 338 339 340 341 341 341 341 341 340 339 338 336 335 335 333 332 332 332 332 332 332 331 330 329 329 328 327 326 324 320 314 308 302 300
322 325 325 323 325 326 324 324 323 323 321 321 319 319 319 319 320 320 320 321 321 321 321 320 320 321 321 320 321 323 324 321 320 320 319 318 319 321 323 328 327 331 336 338 342 342 341 341 337 335 335 337 339 341 340 339 338 338 339 339 337 338 337 338 339 340 341 340 340 341 341 340 339 338 336 335 335 333 331 330 329 330 330 330 330 328 327 327 326 326 325 321 312 305 301 299 299
323 323 324 325 325 323 321 322 322 322 321 320 319 319 319 319 320 320 320 320 321 321 320 320 320 320 321 320 321 325 324 320 317 316 317 315 318 319 322 330 329 330 335 337 341 342 341 341 339 337 336 337 339 341 341 339 339 339 339 340 337 337 337 336 338 340 340 340 340 340 340 339 338 337 336 335 334 332 331 330 328 328 329 328 328 327 326 326 325 325 322 315 305 299 299 299 299
328 323 322 324 322 319 318 319 321 322 321 320 319 320 320 319 320 320 320 320 320 321 320 319 320 320 320 319 323 326 321 318 319 319 317 315 317 318 322 329 331 331 334 338 341 341 340 341 340 338 338 337 338 340 341 340 339 338 339 340 338 337 336 336 337 338 339 340 340 339 339 338 337 336 335 333 332 332 329 328 327 326 327 327 327 326 326 325 324 324 318 308 300 298 299 298 299
330 328 324 323 321 320 320 319 320 322 322 320 320 320 319 319 319 320 320 320 320 320 320 320 320 319 320 320 325 324 320 320 323 322 319 316 315 319 326 329 331 333 334 338 339 339 339 339 339 338 338 338 339 340 341 340 339 339 339 339 338 337 336 336 336 338 339 340 339 339 338 337 336 335 334 332 332 331 328 325 324 323 325 327 326 326 325 324 324 321 313 302 299 298 298 298 298
328 329 326 324 323 323 322 320 321 323 322 320 320 319 318 318 319 319 319 318 318 319 320 320 320 319 319 319 323 323 321 323 324 322 319 318 318 319 330 332 331 334 335 337 338 338 338 337 338 337 337 338 339 341 341 340 340 340 339 339 338 337 336 336 336 337 339 339 338 338 337 336 336 334 333 332 331 330 328 326 324 323 324 326 325 325 325 323 322 318 306 299 298 298 298 298 298
327 327 326 325 324 323 322 321 322 321 320 320 319 318 318 317 318 318 317 317 317 319 319 318 318 318 318 318 321 325 323 322 322 321 319 323 324 321 329 335 332 334 336 337 337 336 337 337 335 333 335 337 339 340 340 340 340 340 339 338 338 337 336 336 337 338 339 338 338 337 337 336 335 334 333 332 330 329 328 327 325 323 324 325 324 325 324 322 321 313 302 299 298 298 298 298 298
325 327 325 324 323 322 323 323 323 321 320 320 318 317 317 317 318 318 317 317 317 318 318 317 318 317 318 317 321 329 324 320 319 318 318 322 326 325 327 334 333 333 336 337 336 335 336 336 335 331 332 337 339 340 340 340 340 340 339 338 338 338 336 336 338 338 338 338 337 337 336 335 333 332 332 331 330 329 328 327 326 323 323 324 323 324 323 322 320 311 301 299 298 298 298 298 298
323 326 326 324 323 321 322 324 324 320 320 320 318 318 317 318 318 318 318 318 318 318 318 318 318 317 318 317 320 327 322 319 317 315 317 318 323 326 327 333 333 333 335 336 336 335 334 336 337 334 333 336 339 339 339 340 340 340 339 339 338 338 337 337 337 338 338 337 337 336 335 334 332 331 330 330 329 328 328 327 325 320 320 323 323 323 322 321 319 310 301 299 298 298 298 298 298
322 324 325 324 324 322 322 324 323 319 318 319 318 318 317 318 318 318 317 317 317 317 317 317 317 317 318 317 319 322 320 318 317 317 319 319 321 325 327 330 332 332 333 335 336 334 333 335 337 337 336 336 338 339 339 339 339 339 339 339 338 338 337 337 337 338 337 337 336 335 335 333 331 330 329 329 328 327 327 325 322 315 316 322 322 322 321 321 318 308 300 298 298 298 297 298 298
323 324 324 323 323 322 321 321 321 319 318 317 317 318 317 318 318 318 317 317 317 317 317 317 317 318 317 318 318 320 319 318 319 320 323 323 323 325 327 327 329 330 331 332 334 334 333 334 336 337 337 336 338 339 339 339 339 339 339 339 338 337 337 337 337 337 337 336 335 335 333 331 330 329 328 328 327 326 325 324 319 311 315 322 321 321 320 319 317 306 299 298 297 298 297 298 298
323 325 324 323 323 323 321 320 320 321 319 317 317 317 317 317 317 318 317 317 317 317 317 316 317 318 318 318 318 320 320 318 320 321 323 325 325 325 326 327 327 328 330 330 331 333 333 334 335 336 337 337 337 338 338 339 338 338 338 338 338 337 337 337 336 336 336 335 334 333 332 330 329 328 327 327 326 326 325 323 317 309 316 322 320 320 319 318 315 305 299 298 297 297 298 298 298
322 324 323 323 323 322 320 319 319 319 318 318 317 317 316 316 317 317 317 317 317 317 316 317 317 317 318 317 317 320 320 319 321 322 322 323 325 325 325 327 327 327 328 328 328 330 332 333 334 334 335 336 336 337 338 338 337 337 336 337 337 337 336 336 335 334 334 332 332 332 330 329 328 327 327 326 326 325 323 321 316 311 316 320 319 319 317 316 313 303 298 297 297 297 297 299 299
322 322 322 322 321 320 318 317 318 319 318 318 318 317 316 316 317 317 318 318 318 317 316 317 317 316 317 317 316 317 319 319 320 321 320 320 322 323 323 325 326 327 326 327 328 329 330 332 333 333 334 335 336 336 337 337 337 336 336 336 336 336 336 335 334 333 332 331 331 330 329 328 327 327 327 326 325 324 321 318 315 313 316 318 317 317 315 312 307 300 298 297 297 296 297 298 298
321 321 321 321 321 319 318 318 319 320 319 319 318 317 316 316 317 318 318 317 317 316 316 316 316 316 316 316 316 316 317 319 319 319 320 320 320 320 321 322 322 325 327 328 329 328 327 329 332 333 334 334 335 335 336 336 336 336 335 335 335 335 334 334 334 333 332 331 329 329 328 327 327 326 326 325 325 323 321 319 316 314 315 316 315 314 312 308 302 298 298 297 296 296 296 298 298
321 320 320 320 319 317 317 317 319 320 318 318 318 317 316 316 316 317 317 318 317 317 318 317 317 317 317 316 317 318 319 319 319 318 318 319 320 319 320 320 320 322 326 328 329 329 328 328 330 332 333 334 334 334 334 335 335 334 334 334 334 333 333 332 332 332 331 330 329 328 328 327 327 326 325 325 324 323 321 319 316 314 314 315 315 314 311 306 302 298 297 297 296 296 297 297 298
320 320 320 319 317 316 316 317 319 319 319 318 318 318 317 316 316 316 316 317 317 317 317 317 317 317 317 317 318 318 319 319 318 317 318 318 318 319 319 319 319 319 323 326 328 330 329 328 328 329 332 333 333 334 333 334 334 333 333 333 332 332 332 331 331 330 330 330 329 329 328 326 326 326 325 324 324 322 320 318 316 314 314 314 313 313 311 307 303 300 297 296 296 297 298 297 297
318 318 319 319 317 317 317 317 318 318 318 317 318 318 317 316 316 316 316 316 316 316 316 316 316 316 318 318 317 318 319 319 317 316 318 318 317 318 319 319 319 319 320 324 326 328 329 329 328 328 330 331 332 333 333 333 333 332 332 331 331 330 331 330 329 329 329 329 329 328 328 326 325 325 324 324 323 321 319 318 316 314 314 314 312 312 311 308 305 302 298 296 296 297 298 297 297
317 317 317 317 316 317 317 316 316 316 316 316 318 318 317 316 316 316 316 316 316 316 316 317 316 316 317 317 317 317 318 319 318 317 317 317 318 317 318 319 319 319 319 320 324 327 327 328 328 328 328 329 331 332 333 332 332 332 331 331 330 330 330 330 329 329 328 328 328 328 327 325 325 325 324 323 322 320 318 317 316 314 314 314 312 311 311 309 307 303 299 296 296 297 297 297 297
316 316 316 315 315 315 315 315 314 314 314 315 317 317 317 316 316 316 315 316 316 316 316 317 317 317 317 316 316 316 317 318 316 316 317 316 317 318 318 318 319 319 319 319 321 324 325 326 328 327 327 328 329 331 332 332 331 331 331 330 330 330 330 330 329 328 328 327 328 328 327 325 324 324 323 322 321 319 317 316 315 315 314 314 313 311 310 309 306 303 299 297 297 297 297 297 297
316 315 314 314 314 314 314 314 314 314 314 315 316 316 316 315 316 315 315 315 315 316 316 316 317 317 317 316 316 317 318 316 315 316 317 316 316 318 318 318 319 318 318 319 319 322 323 324 326 327 327 328 328 330 331 331 331 330 330 330 330 330 330 329 329 328 327 327 327 327 326 325 324 324 323 321 320 317 315 315 315 315 315 315 314 312 310 307 305 302 299 297 297 297 297 297 297
314 314 314 313 313 314 314 314 315 315 315 316 315 315 315 315 316 315 315 316 316 316 316 317 317 316 317 316 316 317 316 314 314 315 316 317 316 317 318 318 318 318 318 318 318 320 321 323 324 326 327 327 328 328 329 330 330 330 329 329 329 329 329 329 328 328 327 327 326 326 325 325 324 323 322 320 319 317 314 314 315 315 315 314 313 312 310 307 304 301 298 297 297 297 297 297 297
314 314 313 314 314 314 315 316 316 315 315 316 314 315 315 315 316 316 316 316 316 316 316 316 316 315 315 315 315 316 316 315 314 315 315 316 317 316 317 317 317 317 318 318 319 319 319 321 323 324 326 327 328 327 328 329 329 329 329 328 328 328 328 328 328 328 327 326 326 325 325 324 324 323 322 320 318 316 314 314 314 314 314 313 312 310 309 306 302 300 298 298 298 297 297 297 297
314 314 314 315 315 316 316 317 318 316 315 314 314 314 314 314 315 316 316 317 316 316 316 316 315 314 315 315 316 315 316 315 314 314 316 315 316 316 315 316 315 315 315 316 318 318 318 320 322 324 325 326 327 327 327 328 328 328 327 328 328 328 328 328 328 327 326 326 325 325 324 323 324 323 322 319 317 316 314 313 313 313 312 311 310 309 307 304 301 299 298 298 297 297 297 297 297
314 315 316 317 317 316 317 319 318 316 314 313 315 315 315 314 316 316 317 316 315 315 315 315 314 314 314 315 315 316 316 315 314 315 316 315 314 314 314 314 314 313 313 313 316 318 318 319 321 322 324 325 325 326 326 326 326 326 327 327 327 327 327 327 327 326 325 325 325 324 323 322 323 323 321 319 317 315 313 312 312 311 311 310 309 307 306 303 301 299 298 297 297 297 297 297 296
316 316 316 318 318 316 318 319 318 317 315 313 314 315 315 315 316 316 316 315 315 314 314 314 314 314 314 315 315 316 317 316 315 315 314 314 314 313 312 312 312 312 312 312 313 316 317 318 320 321 321 322 324 325 325 325 325 325 326 326 326 326 326 326 326 325 325 324 324 323 322 322 322 322 321 319 317 315 313 312 311 310 310 309 308 306 305 303 301 299 298 297 297 297 297 297 296
318 318 317 318 318 317 317 318 319 318 316 315 314 314 314 314 315 315 315 315 315 314 314 314 314 315 314 315 316 316 317 317 315 314 314 314 313 312 312 311 311 310 310 311 312 314 315 317 319 319 319 320 322 324 324 324 325 325 325 325 325 325 325 325 324 324 324 323 322 322 322 321 320 320 320 319 317 315 313 311 310 310 309 308 307 306 304 302 301 299 298 297 296 296 296 297 296
318 319 318 318 318 317 317 317 318 318 317 317 316 315 315 316 316 316 316 315 315 314 314 314 314 315 314 315 317 318 317 316 315 314 313 313 312 312 311 311 310 310 310 310 311 313 313 315 317 317 317 318 320 322 323 323 324 324 324 324 324 324 324 324 323 323 322 322 321 321 320 319 318 318 318 318 316 314 313 311 310 309 308 308 306 305 303 302 300 299 297 297 296 296 296 296 296
317 318 318 317 317 317 317 317 318 318 317 317 318 317 317 317 316 316 316 315 315 315 314 315 314 314 315 317 318 318 316 315 314 312 312 311 311 310 309 309 309 309 309 310 310 311 312 314 315 314 314 316 318 320 322 322 323 323 322 322 322 322 322 322 322 322 321 321 320 320 319 318 317 317 317 317 316 314 312 310 309 307 307 307 305 304 303 302 300 299 297 296 296 296 296 297 297
317 318 318 318 317 317 317 317 318 318 318 317 318 318 317 316 316 314 314 314 314 314 315 314 314 315 318 319 320 318 316 315 312 311 310 309 309 309 308 308 308 308 308 308 309 310 311 312 313 312 313 314 316 318 320 320 321 321 321 321 321 321 321 321 321 320 320 320 319 318 318 317 316 316 316 316 315 314 312 310 308 306 306 305 305 304 302 301 300 298 297 296 296 296 297 297 296
318 318 318 318 318 317 317 317 318 318 318 317 317 317 316 315 315 314 314 315 315 315 315 315 315 317 319 319 318 316 314 312 311 309 308 307 307 307 307 307 307 307 307 307 308 308 309 310 311 311 311 312 314 316 317 318 319 319 318 319 319 319 319 319 319 318 319 319 318 317 316 316 315 314 315 315 315 314 313 311 309 307 305 304 304 303 302 301 299 298 297 296 296 296 297 297 296
318 318 319 319 319 318 317 318 318 317 316 316 316 315 315 315 314 315 315 315 316 316 316 317 318 317 316 316 314 312 311 310 309 308 307 306 305 305 305 305 305 306 305 306 306 307 308 309 309 310 310 310 311 312 314 315 316 316 316 316 317 317 317 316 317 316 316 316 317 317 316 315 314 313 313 313 313 313 313 312 310 307 305 304 303 302 301 300 299 298 297 297 296 296 297 297 297
319 319 319 319 319 319 320 319 318 316 315 316 316 315 315 315 315 316 316 316 317 318 317 317 317 315 314 313 311 310 309 308 307 306 306 305 304 304 304 304 304 304 305 305 305 305 306 307 308 308 308 308 309 309 310 311 313 313 314 314 314 314 314 314 313 313 313 313 314 314 314 313 313 312 311 311 311 312 312 312 310 308 305 304 303 302 301 300 299 298 297 297 296 296 297 297 297
320 321 321 320 319 320 319 318 317 316 316 316 317 318 318 318 318 317 318 318 318 317 316 315 315 314 313 311 310 309 307 307 306 305 305 304 304 303 303 303 303 303 303 303 303 303 304 305 306 306 306 307 307 307 308 309 310 310 310 310 310 310 310 310 309 309 309 310 310 310 310 310 310 310 310 310 310 310 310 310 310 308 305 303 303 302 301 300 299 298 297 297 296 296 296 296 297
320 322 322 319 318 319 319 320 319 318 319 318 318 322 323 320 320 320 319 319 317 315 313 312 312 311 311 310 309 308 307 306 305 304 304 303 303 302 302 302 302 302 302 302 302 302 302 303 304 304 304 305 306 306 306 307 308 308 308 308 308 308 308 308 308 308 308 308 308 308 307 307 307 307 308 308 308 308 308 308 308 308 306 303 302 302 301 299 299 298 297 297 296 296 296 296 296
320 322 322 319 319 321 321 320 320 320 319 317 316 321 321 319 319 320 319 318 314 313 312 311 310 310 309 308 307 306 306 305 304 303 303 302 302 302 301 301 302 302 302 302 302 301 301 302 302 302 302 303 304 305 305 305 306 306 307 307 307 307 307 307 307 307 307 307 307 307 306 306 306 305 305 306 306 306 306 307 307 307 306 304 302 301 300 299 298 298 297 297 296 296 295 295 296
322 321 319 319 318 319 319 318 319 319 318 317 316 318 320 320 319 319 319 317 313 312 311 310 310 309 307 306 306 305 304 304 303 303 302 301 301 301 300 300 301 301 301 301 301 301 301 301 301 301 301 302 303 304 304 304 305 305 305 306 306 306 306 306 305 305 305 305 305 305 305 305 304 304 303 304 304 304 305 305 305 305 305 305 303 301 300 300 298 298 298 297 296 296 295 295 295
322 320 317 317 316 316 316 317 318 318 318 320 320 319 322 323 320 319 320 316 313 313 311 310 310 308 307 306 305 305 304 303 302 302 301 300 300 300 299 299 299 300 300 301 301 301 301 300 300 300 300 301 301 302 303 303 304 304 304 304 304 305 305 305 305 305 305 305 304 304 304 303 303 303 302 302 302 302 303 303 303 304 304 304 304 302 301 300 299 298 297 297 297 296 296 295 295
319 318 317 317 317 318 318 318 318 317 319 321 322 320 323 326 323 321 321 316 313 313 311 309 309 307 306 305 304 303 303 302 302 301 300 299 299 299 298 297 297 298 298 299 299 300 300 300 300 300 300 300 300 300 301 301 302 302 302 303 303 303 303 303 304 304 304 304 304 304 304 303 303 302 302 301 301 301 301 302 302 302 302 302 303 303 301 300 299 298 297 297 297 296 296 295 295
317 317 318 318 320 320 319 320 317 319 324 323 322 320 320 327 327 319 318 316 313 312 310 309 307 306 305 303 302 301 301 300 300 299 299 298 298 298 297 297 296 296 297 297 298 298 298 299 299 299 299 299 299 299 299 299 300 300 300 301 301 301 302 302 302 302 302 303 303 303 303 303 303 302 302 301 301 300 300 300 300 300 301 301 301 301 301 301 300 299 298 297 297 297 296 295 295
315 315 315 318 321 319 318 319 318 321 327 323 321 321 321 327 327 317 315 315 313 312 310 308 306 304 304 303 302 300 299 299 298 298 297 297 297 296 296 296 295 295 295 296 296 296 296 297 297 297 298 298 298 298 299 299 299 299 299 299 299 300 300 300 301 301 301 301 301 301 302 302 302 302 302 301 301 300 300 300 300 300 300 300 300 300 300 300 300 299 298 297 297 297 296 296 295
314 314 314 319 324 323 322 323 323 324 324 320 321 323 323 324 324 317 315 312 311 311 309 307 305 303 303 302 301 300 299 298 297 297 297 296 296 296 296 295 295 295 295 295 295 295 295 295 295 296 296 296 297 297 297 298 298 298 298 298 298 298 299 299 299 299 299 299 300 300 300 301 301 301 301 301 300 300 300 300 299 299 299 299 299 299 299 299 299 299 298 297 297 296 296 296 295
314 316 318 321 324 326 327 327 327 327 324 322 322 323 323 323 321 316 312 309 308 308 306 305 304 303 302 301 301 300 299 298 297 297 296 296 295 295 295 295 294 294 294 294 294 294 294 294 294 294 295 295 295 295 295 296 296 296 296 297 297 297 298 298 298 298 298 298 298 299 299 299 300 300 300 300 300 300 300 300 299 299 299 298 298 298 298 298 298 298 298 297 297 296 296 296 296
317 319 321 322 323 325 325 326 328 329 328 326 323 322 324 324 319 312 308 307 306 305 304 304 303 302 302 301 301 300 299 299 298 297 296 295 294 295 294 294 294 294 294 293 293 293 293 293 293 293 294 294 294 294 294 294 294 295 295 295 295 296 296 296 296 297 297 297 297 298 298 298 298 299 299 299 299 299 299 299 299 299 298 298 298 298 298 297 297 297 297 297 297 296 296 296 296
319 318 319 322 324 325 323 325 327 326 326 324 322 324 324 319 314 309 307 306 305 304 304 303 302 302 302 301 300 299 299 299 299 298 297 295 294 294 294 293 293 294 293 293 293 293 293 293 292 292 292 292 293 293 293 292 292 292 293 293 293 293 294 294 294 295 295 295 296 296 296 296 297 297 297 297 297 298 298 298 298 299 298 298 297 297 297 297 297 297 297 297 296 296 296 296 296
316 317 321 321 321 323 323 324 324 323 324 322 320 322 321 317 315 308 306 306 304 304 303 302 302 302 301 301 300 299 299 298 298 297 296 295 294 294 293 293 293 293 293 292 292 292 292 291 291 291 290 290 291 291 292 291 290 290 290 290 290 291 291 292 292 292 292 292 293 293 293 294 294 295 295 296 296 296 296 297 297 298 298 297 297 297 296 296 296 296 296 296 296 296 296 295 295
317 319 321 318 319 322 320 321 323 323 323 321 320 321 319 320 318 310 306 306 304 303 302 301 301 300 300 299 299 298 298 297 296 296 295 294 293 293 292 292 292 292 292 292 291 291 291 290 291 291 290 290 290 290 290 290 290 289 289 289 288 289 289 289 290 290 290 290 290 290 290 291 291 292 293 294 294 295 295 295 295 296 296 296 296 296 296 296 296 296 296 296 296 295 295 295 295
317 318 317 316 320 322 319 320 321 322 321 320 321 320 318 320 319 312 308 306 304 303 302 301 300 299 299 298 298 297 296 296 296 295 295 294 293 293 292 292 292 292 292 292 292 292 291 291 291 291 290 290 290 289 290 290 289 289 289 288 288 287 287 287 287 287 287 287 288 288 288 289 288 289 290 290 291 292 293 294 294 294 294 295 295 295 295 295 295 295 295 295 295 295 295 295 295
314 314 314 316 318 319 319 320 321 320 320 320 320 320 319 319 315 312 309 305 304 303 302 302 300 299 298 298 297 297 296 297 296 296 295 294 293 293 293 293 292 292 292 292 292 292 292 291 291 291 290 290 290 289 289 289 289 289 289 288 288 288 287 287 287 287 286 286 286 286 287 287 287 287 287 288 288 289 290 292 293 293 294 294 294 294 295 295 295 295 295 295 295 295 295 294 294
316 315 315 316 316 317 318 318 320 320 319 320 320 319 320 316 310 309 308 306 305 305 303 303 302 300 300 299 298 298 297 297 297 297 296 295 294 294 293 293 293 293 292 292 292 292 292 292 291 291 290 290 290 290 289 289 289 289 289 289 289 288 288 287 287 287 287 287 286 286 286 286 286 286 286 286 287 287 288 289 290 291 292 293 293 293 294 294 294 294 294 294 294 294 294 294 294
320 318 316 317 316 317 318 317 318 319 318 319 319 319 320 315 308 307 307 306 306 306 305 304 302 301 300 299 299 298 298 298 297 297 296 295 294 294 294 293 293 292 292 292 292 291 291 291 291 291 290 290 290 289 289 289 289 289 289 289 288 288 288 288 288 287 287 287 287 286 286 286 286 285 285 285 285 286 286 286 287 288 289 290 292 292 293 293 293 294 294 294 294 294 294 293 293
Wind_Speed
5 7 9 8 10 11 9 4 1 2 2 4 4 3 2 2 0 3 5 6 2 3 3 2 3 2 3 3 3 5 4 3 3 2 1 3 6 11 13 12 12 14 17 15 18 24 25 24 23 21 21 20 19 18 18 17 16 15 14 14 13 12 12 11 10 10 9 8 8 7 7 7 6 6 6 6 6 6 6 6 6 5 5 5 5 5 5 5 3 2 1 3 3 3 3 3 1
4 6 9 8 9 7 4 1 2 3 2 3 1 4 1 1 1 3 7 5 3 3 2 2 3 2 3 4 4 5 3 4 1 2 2 7 9 11 12 14 14 15 17 15 19 25 26 25 23 22 21 21 20 19 18 17 17 15 15 15 14 14 13 12 11 11 10 9 9 8 8 7 7 8 8 7 7 6 6 6 6 5 5 6 6 5 4 4 1 0 1 3 6 5 5 3 3
4 4 8 9 7 5 2 1 2 3 4 2 3 3 1 2 4 6 6 5 4 3 1 2 1 1 2 3 3 2 3 1 3 4 4 8 7 9 12 14 15 15 17 15 18 25 27 26 25 23 22 22 21 20 19 18 18 16 15 15 15 14 13 13 12 12 11 10 10 9 9 9 9 9 8 7 6 6 6 6 6 6 6 6 5 4 2 2 1 1 1 4 7 6 5 5 6
4 3 7 8 4 3 2 1 2 3 4 2 2 3 3 2 4 6 5 5 4 2 0 2 1 1 2 3 2 2 2 2 5 4 3 6 3 7 11 15 17 15 18 14 16 24 27 27 26 24 23 22 22 21 19 18 18 17 17 16 15 15 14 13 12 12 11 11 11 10 10 10 10 9 8 7 6 6 6 6 6 5 5 4 4 2 1 0 1 1 2 4 8 8 7 8 9
6 4 6 7 2 1 1 2 2 3 3 2 2 2 5 4 5 5 4 1 4 3 0 1 1 1 1 2 2 2 1 3 4 3 4 6 4 6 8 15 18 15 19 15 14 22 26 27 26 25 23 23 22 22 21 20 19 18 17 16 16 16 15 14 13 13 12 12 12 11 11 11 10 9 9 8 6 5 6 6 6 5 4 4 3 1 1 0 0 1 2 4 8 9 8 9 9
9 6 6 4 2 0 1 2 3 4 1 3 2 3 5 5 5 5 4 2 5 5 0 1 2 2 2 2 3 1 1 2 1 2 4 7 7 5 6 14 17 14 18 17 15 19 25 27 26 26 24 23 23 22 22 21 20 19 18 17 17 17 16 15 14 13 12 12 12 12 12 12 11 10 10 9 7 6 6 6 5 5 4 4 4 2 2 1 1 2 3 3 7 9 8 8 8
9 5 3 2 2 1 1 4 4 4 1 3 2 4 5 5 6 4 4 2 2 3 1 1 1 3 3 1 2 2 2 2 2 3 4 6 7 6 5 13 17 13 16 18 15 17 22 25 25 26 25 24 23 22 22 22 21 20 19 17 17 16 16 15 15 14 13 12 13 13 13 13 11 10 10 10 9 7 6 6 5 6 5 5 4 3 3 3 2 2 2 2 7 9 8 8 7
6 2 0 1 1 1 2 4 5 4 0 2 2 1 2 4 4 3 4 2 1 2 3 2 2 2 3 1 2 2 5 5 4 5 4 4 6 6 6 13 17 14 15 18 16 17 20 23 25 26 26 25 24 23 22 22 22 21 20 18 18 16 16 16 15 15 14 13 13 13 13 13 12 10 10 10 8 5 5 7 7 8 8 6 5 5 4 3 3 2 2 4 8 9 7 6 4
5 2 1 1 2 2 3 5 5 2 0 3 3 1 2 2 2 1 3 4 2 0 3 4 4 2 2 2 2 3 5 6 7 6 4 4 6 6 7 12 16 15 15 17 17 18 18 20 23 25 27 26 25 24 23 23 22 22 21 20 19 17 16 17 16 16 15 15 14 14 13 13 12 11 11 10 8 6 6 8 8 7 7 6 5 6 4 3 3 3 3 7 9 7 5 3 2
3 2 0 1 2 3 4 4 1 1 1 3 1 1 5 4 3 2 3 4 1 1 2 5 3 4 4 5 2 2 6 9 8 7 6 5 6 6 8 12 14 15 17 18 18 18 18 19 22 23 26 27 26 25 24 23 23 22 22 20 20 19 18 17 17 17 16 16 15 15 14 13 13 12 12 10 11 9 9 11 8 6 6 6 6 6 5 5 4 4 6 8 7 4 2 1 2
1 3 1 1 3 4 4 3 4 4 3 2 1 5 6 4 3 3 3 4 1 1 3 5 2 4 4 5 3 2 9 10 8 8 7 6 7 7 9 12 13 14 17 19 17 18 18 19 20 22 24 27 27 26 25 24 24 23 22 20 20 20 19 18 18 18 18 17 16 15 15 15 14 13 12 11 13 11 10 11 11 10 8 7 7 6 6 6 5 5 7 7 4 2 0 1 2
1 2 1 1 4 4 4 5 5 5 6 5 2 7 4 3 1 4 3 4 3 4 3 5 2 1 2 4 2 5 10 8 8 9 8 7 8 8 9 12 14 15 17 19 18 16 17 20 21 22 23 27 27 26 26 25 24 24 23 21 20 20 19 19 19 19 18 17 17 16 16 16 15 14 14 13 14 12 10 10 10 10 8 7 7 7 7 7 6 6 7 5 2 1 1 1 3
2 4 2 3 3 5 4 4 5 5 5 2 4 4 1 1 0 4 5 6 7 6 2 3 2 2 2 5 1 6 7 6 9 9 7 7 7 10 10 11 14 16 16 20 21 17 16 19 22 22 23 26 28 26 26 25 24 24 24 22 21 21 20 20 20 20 19 18 18 18 17 16 15 15 15 15 15 13 12 11 10 10 9 8 8 7 7 7 7 8 7 3 2 2 2 2 3
2 3 2 3 3 5 4 4 5 4 4 3 4 3 2 0 0 3 4 6 7 1 1 1 3 3 2 5 1 3 4 5 8 8 8 8 7 10 11 9 13 16 16 19 21 20 17 18 21 22 24 27 29 27 25 25 24 24 24 23 22 22 21 21 20 20 19 20 19 19 19 17 16 16 16 16 15 15 14 12 12 11 10 9 8 8 8 8 7 8 6 4 4 3 2 2 3
1 3 1 2 4 5 3 3 3 2 3 3 3 2 2 2 2 0 3 4 4 1 1 3 2 1 3 4 2 2 7 9 8 8 9 9 8 9 12 10 12 16 16 18 20 21 19 17 17 20 23 28 30 28 27 26 25 25 25 24 23 23 22 22 21 21 21 21 21 19 19 18 17 17 17 17 17 16 15 14 13 13 12 10 9 9 9 8 7 7 6 5 4 3 2 3 3
0 3 1 2 4 5 3 3 1 1 2 3 3 2 1 3 2 2 2 1 5 4 2 2 5 4 4 6 3 5 10 12 8 8 7 8 9 8 12 12 12 15 17 17 19 20 20 18 17 18 22 28 31 29 28 27 26 25 25 24 24 24 23 23 23 22 22 21 21 20 19 18 18 17 18 18 17 17 16 15 14 14 12 10 10 10 9 9 8 8 7 6 4 3 2 3 3
0 1 1 3 4 5 3 2 1 1 4 2 3 3 1 3 1 2 1 0 5 8 6 5 6 6 7 11 8 6 11 11 8 8 7 8 9 9 11 12 12 15 18 19 19 20 21 21 20 19 21 27 30 29 28 29 28 26 26 25 24 24 24 24 24 23 22 21 21 21 20 19 19 18 18 18 18 17 16 15 15 15 13 11 11 10 10 9 8 9 8 6 4 2 2 2 2
1 1 2 4 5 5 4 5 4 3 5 5 4 3 3 5 1 1 2 3 6 9 10 7 8 9 12 19 16 10 12 12 10 10 10 10 11 11 12 14 15 16 19 21 21 22 23 24 23 22 22 25 29 29 28 28 28 28 27 27 25 25 25 25 24 24 23 23 22 22 21 20 19 19 18 18 18 17 16 15 15 15 13 13 13 12 11 10 9 9 9 7 4 3 2 1 1
2 2 3 4 4 5 5 7 6 4 5 7 7 6 6 6 5 1 2 6 5 8 11 8 8 9 13 18 17 15 15 14 14 14 13 13 13 13 14 15 18 18 19 21 24 24 24 26 26 26 25 25 28 29 29 27 27 27 28 28 28 27 26 26 25 25 24 24 24 23 23 22 20 19 18 18 18 17 17 16 16 15 15 16 16 14 12 10 9 11 10 7 5 4 3 2 1
4 3 3 5 5 6 7 7 7 5 6 7 6 6 6 7 6 2 5 8 6 8 10 8 9 9 8 9 9 14 17 16 16 15 14 14 15 15 15 16 19 21 21 22 23 25 25 26 28 28 27 26 27 29 29 28 27 27 28 29 30 30 29 28 27 27 26 26 26 25 24 23 21 19 17 17 17 18 17 17 17 16 17 18 18 17 15 12 11 13 12 8 7 7 5 4 3
3 4 4 5 5 7 7 9 9 6 5 5 6 6 7 8 5 3 5 7 6 8 10 9 10 10 9 10 8 5 10 13 15 15 14 14 15 16 16 16 18 20 21 21 22 24 26 27 29 30 30 29 28 29 30 30 28 27 28 30 31 31 31 31 30 29 27 27 26 26 25 24 22 20 18 18 18 19 18 17 18 18 19 20 19 19 17 16 15 14 12 10 9 8 7 5 3
2 4 7 7 6 8 8 9 7 3 4 5 7 7 7 6 5 4 5 7 7 7 9 11 12 11 11 10 10 10 8 8 11 13 14 15 17 18 18 17 17 16 18 22 23 24 26 28 29 30 31 31 30 31 31 31 30 28 27 29 31 30 31 31 31 31 30 28 27 26 25 24 23 21 21 20 20 20 19 19 19 20 21 22 21 20 19 18 17 15 13 12 12 10 9 7 5
4 5 7 7 7 9 9 9 3 2 3 7 7 7 7 8 8 7 7 11 11 9 11 13 14 13 14 12 10 10 10 9 8 11 15 16 17 19 19 18 17 17 18 22 23 23 25 27 29 30 31 32 32 31 31 30 31 30 27 27 29 30 30 30 31 32 31 30 28 27 26 26 25 24 23 22 22 21 21 20 20 22 22 23 23 21 20 19 17 16 15 14 13 12 11 10 8
6 6 6 8 9 11 11 9 5 2 5 8 7 7 8 10 9 8 9 13 13 12 12 14 14 14 14 11 10 10 10 10 10 14 18 18 18 19 19 19 19 18 19 21 22 23 24 26 29 30 32 32 33 33 32 31 31 32 29 27 27 29 30 29 30 29 29 30 30 29 28 27 27 26 25 24 23 23 22 21 20 22 23 23 23 22 20 19 18 18 16 15 15 15 13 11 10
7 7 6 8 8 10 9 8 8 7 7 7 6 8 11 11 9 10 13 15 15 14 14 14 13 12 12 11 11 10 9 10 11 14 18 19 19 18 17 18 20 19 19 22 23 24 24 25 27 30 32 33 33 33 33 33 31 32 32 29 27 28 29 29 28 27 27 29 29 30 29 28 28 28 27 26 24 24 23 21 20 21 23 23 22 22 21 20 19 18 17 17 18 16 13 11 11
5 6 5 6 7 8 9 10 11 10 8 6 6 10 12 9 7 10 14 15 14 13 13 13 12 11 10 10 10 9 9 9 10 13 16 18 19 19 19 20 21 22 23 24 24 25 25 24 26 29 31 33 33 34 34 33 32 32 32 31 29 28 30 28 27 27 27 28 29 29 30 29 29 29 29 27 26 26 25 23 21 21 22 23 22 21 22 22 20 19 18 18 19 16 14 13 12
3 5 7 8 9 10 10 12 15 12 10 10 9 11 11 7 4 7 11 12 11 10 10 9 8 9 8 8 8 8 8 10 13 14 13 13 15 19 21 20 21 23 24 25 25 25 25 25 27 28 30 32 33 34 34 33 32 32 32 32 31 29 30 29 27 27 27 28 29 29 31 30 29 30 29 27 26 27 27 25 23 23 23 24 24 23 24 24 21 20 19 19 18 16 15 14 13
5 6 8 10 11 12 13 14 15 11 8 10 9 9 11 7 5 10 14 13 11 10 10 9 8 8 8 9 9 8 8 11 14 13 9 10 13 17 19 21 22 23 23 24 24 24 24 26 27 28 29 31 32 33 34 34 33 32 31 32 32 30 29 30 29 27 27 28 29 29 31 32 31 30 29 28 27 28 29 27 26 25 26 26 25 24 25 24 22 20 20 19 18 17 16 15 14
4 4 6 12 11 12 15 14 14 12 6 6 5 3 7 7 8 13 15 12 10 10 10 9 8 8 8 9 9 7 8 10 11 9 10 13 14 14 16 18 19 20 21 22 22 22 23 25 26 27 28 30 31 32 33 33 33 32 31 30 31 31 30 30 31 28 28 29 29 28 30 32 32 30 29 28 28 29 29 29 28 28 28 28 27 26 26 24 22 22 21 20 19 18 18 16 15
3 3 5 9 8 9 11 11 11 9 3 9 7 1 4 7 8 10 9 5 6 7 7 9 8 9 9 9 8 8 8 8 8 9 11 13 12 12 13 12 12 12 12 14 17 19 21 22 24 24 26 28 29 30 30 30 31 30 30 28 28 30 30 30 31 30 28 28 28 28 30 33 33 31 29 28 29 29 30 29 29 29 29 29 28 27 27 25 24 24 24 22 21 20 20 18 17
5 6 5 5 4 5 8 8 4 3 1 6 6 2 5 7 9 9 5 1 4 7 8 11 11 11 10 8 8 8 8 7 9 13 13 8 5 2 4 5 6 7 8 8 10 14 17 18 20 21 22 24 26 27 27 26 27 27 26 27 26 26 28 29 30 30 29 28 28 28 30 32 33 32 29 29 30 30 30 30 31 30 30 29 29 28 27 27 26 26 26 24 23 21 20 19 18
5 5 4 4 4 5 8 7 5 6 2 3 6 2 6 8 8 7 6 6 9 10 11 14 14 13 11 9 7 7 7 7 8 8 8 16 19 17 15 13 10 7 5 5 4 7 11 13 15 17 18 20 22 23 24 22 22 23 22 23 23 23 24 25 26 27 27 27 27 28 29 30 31 31 30 30 30 31 31 31 31 31 30 30 29 29 28 28 28 27 26 26 25 23 21 19 18
4 4 5 5 5 6 5 4 3 7 3 3 6 4 5 6 6 8 8 9 11 12 14 16 15 13 11 9 6 6 6 5 7 13 22 26 24 22 21 19 16 13 10 7 4 1 5 7 10 13 13 15 18 19 21 19 17 18 19 19 20 20 21 22 23 24 24 24 24 26 27 29 31 30 30 30 31 31 31 31 31 30 30 30 30 29 29 29 28 28 27 26 26 24 22 20 18
4 4 5 6 6 6 4 3 1 5 4 4 7 7 7 7 8 10 10 10 11 12 15 16 13 10 9 8 6 6 4 6 9 14 23 27 25 23 21 19 17 16 14 11 8 5 5 2 5 8 8 10 13 14 17 17 14 13 14 14 15 16 17 19 19 20 21 21 20 23 24 26 28 29 30 30 30 31 31 30 30 30 30 30 30 30 29 28 28 28 27 26 25 25 24 23 21
5 5 5 6 6 6 6 5 5 4 5 6 7 9 9 8 7 9 10 11 12 13 14 14 11 10 10 8 6 5 7 11 11 17 25 27 26 24 23 23 22 21 19 16 13 10 9 8 6 5 4 5 8 9 11 14 12 11 12 11 12 12 12 14 15 15 17 19 19 19 20 21 23 26 29 29 29 29 29 29 28 28 29 29 29 29 28 28 28 27 28 27 26 25 25 24 23
9 9 7 7 7 7 8 8 8 9 10 9 9 9 8 7 7 10 13 13 13 12 12 12 11 10 8 5 5 7 11 11 14 24 29 28 27 26 26 26 26 26 24 21 18 15 12 10 7 5 3 4 6 6 7 11 11 9 10 10 9 10 11 12 13 12 12 14 16 16 17 17 19 22 25 28 28 27 27 27 26 26 27 28 29 29 29 29 29 29 30 29 27 24 23 23 23
9 9 8 8 7 7 8 9 9 8 8 7 6 8 9 8 9 13 15 13 12 10 10 12 12 6 4 6 6 10 12 11 17 26 29 29 28 26 25 27 28 29 28 26 24 21 17 13 10 8 6 5 6 7 7 9 9 8 8 8 8 8 9 11 12 13 13 12 12 14 16 17 18 19 23 27 30 29 28 26 25 25 25 27 29 30 30 30 31 31 30 29 28 26 23 22 24
8 7 8 8 7 8 9 11 11 6 4 4 5 7 8 9 14 17 15 11 10 10 11 12 6 4 6 7 9 12 11 10 15 21 24 27 27 26 26 27 29 29 29 29 28 25 23 19 15 12 9 7 6 6 7 7 7 6 5 5 6 5 5 7 10 12 14 14 14 14 14 16 17 19 21 25 29 31 30 28 27 27 26 27 28 29 29 29 30 30 29 28 28 28 25 24 26
7 6 6 6 6 7 8 10 9 2 1 3 6 7 7 11 16 17 14 10 9 10 8 2 6 9 8 9 11 12 12 12 14 15 18 23 25 26 26 27 28 27 28 30 28 27 26 23 20 16 13 10 7 7 7 6 6 6 6 6 6 5 4 4 6 7 9 12 15 16 15 15 16 17 20 23 27 29 31 31 30 29 29 29 29 30 30 30 31 31 31 31 28 27 24 24 29
5 5 5 6 5 6 6 4 5 5 3 7 9 7 6 11 15 13 11 9 8 5 4 10 12 12 12 12 12 12 12 12 13 12 13 18 22 25 26 26 26 27 29 30 29 28 27 25 23 20 17 15 10 7 7 6 5 5 5 5 5 5 4 4 5 6 7 9 12 15 16 16 16 17 18 20 23 26 29 30 30 30 29 29 30 31 32 32 33 33 34 34 31 28 26 26 30
5 6 6 6 6 7 6 4 7 7 6 6 6 5 5 8 9 7 6 5 3 5 12 14 12 12 12 13 13 12 12 11 11 11 11 13 18 21 23 24 25 28 29 30 30 29 27 26 25 22 20 19 15 11 8 7 5 4 4 4 4 3 2 2 4 5 6 8 9 11 14 15 16 17 18 19 21 23 26 28 30 30 29 29 29 31 32 32 33 34 35 35 35 33 31 29 30
5 5 4 5 5 5 5 7 7 5 4 3 3 3 3 5 6 6 7 4 4 9 13 12 11 11 11 11 11 11 11 10 10 11 10 12 15 19 23 25 27 29 30 30 30 30 29 27 25 24 23 21 19 15 11 9 7 6 6 6 7 6 5 3 3 4 4 6 7 8 10 11 13 14 16 18 19 21 23 25 28 29 29 28 28 30 32 32 32 34 35 36 37 37 33 28 29
4 3 4 5 5 6 6 7 4 1 3 3 2 2 4 5 5 9 11 2 8 10 12 11 9 10 10 10 9 9 10 9 9 10 10 11 15 18 21 25 27 28 28 30 31 31 31 28 26 25 25 23 21 18 14 12 11 9 8 8 8 8 8 8 8 7 5 5 6 6 7 9 11 12 13 15 18 19 21 23 25 28 29 28 27 28 31 32 32 33 35 36 37 37 34 29 29
3 2 3 5 5 4 3 2 2 4 4 5 5 4 5 4 5 13 12 4 11 9 10 9 8 10 10 9 9 9 9 8 8 9 10 12 16 18 20 23 26 27 28 30 32 32 31 30 28 27 27 25 22 20 18 16 14 13 11 10 10 10 10 9 8 8 8 7 6 6 8 9 10 11 12 13 15 17 19 21 22 24 27 28 28 27 29 31 32 31 32 35 37 36 35 32 31
2 2 1 2 1 2 3 3 4 4 3 4 5 6 3 4 6 11 7 8 9 7 8 8 8 9 8 8 9 9 9 8 8 9 10 12 16 19 20 22 25 27 28 29 30 30 31 31 31 30 29 28 25 22 20 18 16 14 14 13 12 12 11 10 9 8 9 9 8 7 8 9 10 11 11 12 13 15 17 19 20 22 25 27 28 28 28 29 31 31 31 33 36 37 36 34 32
2 2 2 2 4 4 4 4 3 3 3 4 6 7 3 4 6 5 2 8 6 5 7 7 7 7 7 8 8 8 7 7 8 9 10 13 17 19 20 22 26 27 27 27 28 29 29 30 31 32 31 29 27 24 22 20 18 17 16 15 15 14 13 12 11 11 10 11 11 10 9 9 10 11 11 11 12 13 15 17 19 20 22 24 27 28 28 29 30 31 31 31 34 36 37 36 35
1 2 3 4 5 4 4 4 2 1 2 4 7 9 7 3 5 2 5 5 8 8 6 6 7 7 7 7 7 7 6 6 7 8 10 14 17 18 20 22 24 26 26 28 28 28 28 28 29 30 29 28 27 26 25 24 22 20 19 17 16 15 15 14 14 14 14 13 13 12 11 10 10 11 11 12 12 12 13 15 17 19 20 22 24 26 28 29 30 31 31 31 32 34 36 37 37
1 1 2 3 4 1 1 0 1 1 3 3 5 2 7 3 3 2 5 5 8 8 8 8 8 6 6 6 6 6 6 6 7 7 8 11 14 18 21 23 24 27 29 29 28 28 28 28 28 29 29 29 28 27 26 26 25 24 22 20 19 17 17 17 17 16 15 15 14 14 13 12 12 11 11 12 13 13 13 14 16 17 19 20 22 24 26 28 29 30 30 31 31 32 34 36 37
2 2 1 1 2 0 1 0 1 2 3 2 5 7 1 4 6 4 5 7 7 7 8 9 9 8 7 6 5 5 5 7 7 7 7 8 10 15 19 21 24 26 27 28 28 28 28 29 29 29 29 29 28 28 27 27 27 26 24 23 22 21 20 19 18 17 16 15 15 15 15 15 14 13 12 13 14 14 13 14 15 17 18 18 20 22 24 25 27 28 29 30 31 31 32 34 37
4 3 3 3 1 1 2 2 2 3 3 2 4 7 1 4 5 3 6 8 7 10 10 8 9 9 8 6 5 5 5 6 6 6 7 7 9 13 16 19 21 23 25 26 27 27 27 28 28 29 28 28 28 29 28 28 27 27 26 26 25 24 23 21 20 19 18 17 16 16 16 16 16 15 14 14 14 14 14 14 15 16 17 18 19 20 21 23 25 27 28 29 31 32 31 32 36
4 1 2 3 2 2 3 3 3 3 3 5 6 4 2 4 1 2 8 8 7 10 9 8 9 8 7 6 5 5 6 6 5 6 7 7 10 13 15 17 18 19 21 22 23 24 25 25 26 26 27 26 26 26 27 26 26 26 26 27 26 25 25 24 23 22 20 19 18 17 17 17 17 17 16 16 15 15 16 16 16 16 17 18 19 20 21 22 23 25 27 29 30 31 32 32 34
2 2 3 1 3 4 2 2 3 1 2 5 4 2 3 1 4 6 7 7 8 8 7 8 8 7 6 6 5 5 6 5 5 6 6 7 10 13 14 15 16 16 18 19 20 20 21 21 22 23 23 23 22 22 22 23 24 24 25 26 26 26 26 25 25 24 23 21 20 19 18 18 17 17 17 17 17 16 16 17 17 18 18 19 20 20 21 22 23 24 26 28 29 30 31 33 33
0 2 1 3 2 4 1 3 2 1 2 5 3 3 4 1 3 5 7 8 8 6 6 8 7 7 6 5 5 5 5 5 5 5 5 7 10 12 13 13 14 14 15 16 17 17 18 18 19 20 21 21 20 19 19 20 22 23 25 25 26 26 26 25 24 24 23 23 22 22 21 21 20 19 18 18 18 18 17 17 18 19 20 20 21 21 22 22 23 24 25 27 28 29 31 33 33
3 1 2 2 2 3 2 1 1 1 5 5 4 6 6 3 2 3 7 7 7 5 5 6 6 6 5 5 5 5 5 5 4 5 5 6 9 10 11 12 12 12 12 12 13 14 15 15 15 15 16 17 17 17 16 17 19 21 22 23 24 24 25 25 24 24 24 24 24 24 24 24 23 21 21 20 19 19 18 17 18 20 20 21 21 21 22 23 24 25 26 27 28 28 30 32 33
4 3 1 1 1 1 1 1 1 4 6 4 4 8 6 4 3 4 7 7 7 6 5 5 5 5 5 4 4 4 3 2 2 3 3 3 5 6 7 8 8 8 8 9 9 9 10 11 11 11 11 11 13 14 15 15 16 18 18 19 20 21 22 23 23 24 25 26 26 26 26 26 25 24 23 23 22 21 20 19 19 20 21 22 22 22 22 23 24 25 27 28 28 28 30 32 32
3 0 2 2 2 3 2 2 3 4 6 5 5 7 5 1 2 1 7 9 8 7 5 5 5 4 4 3 3 3 2 2 2 2 2 2 1 1 2 3 4 5 6 6 6 6 7 7 8 8 8 9 11 12 14 14 15 15 15 15 15 16 17 20 21 21 23 24 25 25 26 27 27 27 27 26 26 25 23 22 20 20 20 21 22 23 23 23 23 25 27 28 29 28 30 31 32
2 1 2 1 2 1 1 3 3 3 4 5 6 8 4 1 3 3 8 8 7 7 6 5 4 5 5 5 5 5 4 4 4 4 4 4 4 2 0 1 2 3 5 6 6 6 6 6 7 7 7 9 10 11 13 13 13 13 13 12 13 13 15 18 19 19 19 20 21 22 22 24 26 27 28 29 29 29 28 26 24 23 21 20 20 22 23 24 25 26 26 27 28 29 30 31 32
3 2 2 3 2 0 2 5 5 4 5 5 7 8 4 2 3 3 8 6 6 7 6 5 6 6 6 5 5 5 4 4 4 4 5 5 4 2 1 1 2 4 5 6 5 6 6 6 6 7 8 9 11 11 12 12 12 12 12 12 13 13 14 17 19 18 18 18 19 20 20 21 23 24 25 26 28 29 29 29 29 28 26 24 22 21 21 22 25 27 28 28 28 28 30 31 31
Wind_Direction
333 332 324 320 312 309 301 278 279 255 201 246 264 67 83 58 6 296 42 73 74 68 47 340 319 316 290 309 310 309 298 270 299 352 245 172 155 162 182 173 154 166 172 181 183 180 182 183 180 177 176 175 175 176 178 180 180 182 182 177 173 170 172 177 176 174 169 167 169 168 167 162 160 152 147 147 146 140 140 146 141 136 133 126 118 114 111 113 123 166 119 29 350 332 340 352 340
342 325 311 301 292 292 306 318 296 275 239 254 21 51 146 145 101 44 42 49 47 62 38 336 326 319 288 289 283 300 276 222 197 52 126 138 140 165 190 176 161 166 169 184 184 180 184 184 183 179 177 177 176 178 181 181 182 185 183 178 176 177 179 181 182 178 173 177 177 178 178 172 165 156 150 147 142 135 143 145 135 133 129 124 119 117 117 112 120 202 78 344 320 314 314 325 312
336 312 303 293 266 240 278 296 251 296 306 329 55 38 40 12 43 54 47 59 59 64 9 248 232 291 251 247 262 283 264 239 84 52 118 146 142 168 194 177 163 168 170 186 186 182 187 185 186 183 179 179 177 181 184 183 183 186 185 182 181 182 184 184 187 182 180 184 182 186 184 179 172 158 150 145 138 131 144 144 133 132 129 127 122 120 123 122 131 287 5 318 302 301 304 309 310
338 336 307 297 264 219 259 243 245 298 303 327 61 75 82 36 33 49 46 74 105 123 276 266 151 197 225 245 307 321 268 53 73 47 118 157 152 167 186 175 162 169 173 183 190 186 188 188 189 186 183 183 180 182 185 185 186 189 190 189 187 185 187 187 190 187 187 189 188 191 187 184 173 159 148 143 145 137 142 144 138 134 134 134 121 120 128 158 99 328 290 298 291 291 298 304 311
339 335 290 292 308 255 295 286 278 272 277 334 40 60 69 57 37 44 17 43 132 128 285 305 346 202 231 284 313 318 325 67 85 60 98 134 143 167 181 174 161 170 177 177 192 190 190 191 191 189 185 185 185 185 186 187 189 193 194 195 193 190 190 192 192 192 192 192 193 194 191 187 172 162 151 146 163 163 159 156 155 152 150 149 137 171 185 212 351 284 267 285 284 289 302 308 316
319 305 258 261 286 59 326 278 272 260 281 28 14 2 28 41 38 31 324 306 115 112 127 258 300 279 260 230 190 240 31 73 149 82 111 136 153 179 180 174 163 173 182 174 189 192 192 194 194 192 187 187 188 188 189 190 192 194 197 198 198 195 193 194 192 195 195 196 200 197 192 187 174 167 162 168 189 191 186 179 183 183 180 191 178 201 253 275 292 277 266 279 288 297 308 311 318
308 303 237 235 274 84 272 265 272 275 5 46 17 357 359 16 34 9 320 345 82 111 112 275 10 318 282 193 198 232 132 137 161 117 144 142 149 181 172 169 167 176 184 176 187 194 196 198 195 194 190 188 188 190 193 194 194 194 197 199 199 197 196 195 193 196 197 199 203 200 192 186 177 171 175 188 201 201 209 207 202 203 201 219 221 228 247 250 251 266 260 267 294 305 308 312 321
294 293 105 285 281 185 235 263 266 265 165 89 72 20 354 11 35 353 318 315 275 142 157 203 106 288 262 164 240 186 136 139 139 141 167 153 153 185 169 166 172 180 186 178 186 196 200 202 198 196 193 190 189 192 195 196 196 196 198 199 199 197 197 197 195 197 197 201 203 198 193 186 178 177 188 199 212 218 237 236 222 225 221 217 239 247 231 213 223 232 227 266 293 303 306 315 335
253 219 34 326 284 246 242 248 246 259 339 73 55 23 69 32 26 4 307 295 276 135 161 156 134 232 299 309 252 123 128 148 146 155 177 183 176 191 171 167 177 181 185 179 187 198 201 203 200 198 196 194 191 193 197 198 198 198 201 202 202 200 199 199 197 199 199 202 202 197 191 186 182 187 202 214 231 228 232 246 241 237 234 221 235 250 225 194 209 205 227 275 296 303 310 332 23
233 189 330 300 283 271 259 250 266 340 34 81 90 58 60 44 11 340 293 299 298 46 103 106 141 228 307 315 276 123 161 161 147 161 176 186 188 190 176 171 179 183 182 180 191 200 199 201 202 201 200 198 194 195 199 200 201 202 203 204 206 205 203 201 199 201 203 203 201 196 189 187 190 198 211 228 242 234 231 244 242 225 220 216 220 230 213 201 204 203 248 280 297 306 329 32 64
270 187 153 323 288 270 287 344 357 336 336 343 125 89 69 65 12 296 262 278 258 189 165 123 163 241 275 277 264 146 155 154 144 163 172 176 186 184 179 173 178 185 183 182 192 202 201 198 201 204 203 202 199 197 200 202 205 205 206 206 208 208 206 205 203 204 205 203 200 194 192 195 201 210 219 233 241 242 242 241 238 229 213 200 201 204 203 206 200 214 261 282 294 296 23 80 84
288 256 126 278 286 284 328 356 324 326 326 310 58 80 69 85 25 291 320 320 310 298 230 142 156 256 280 268 257 142 144 144 145 165 170 167 179 172 176 180 179 184 186 186 191 201 206 202 201 206 207 206 203 200 202 204 206 207 208 208 210 210 207 208 207 207 208 203 197 191 196 206 211 219 223 230 239 245 247 243 240 233 209 193 197 195 200 202 199 225 262 277 262 233 161 109 96
259 307 353 279 293 304 321 328 300 315 311 329 86 93 90 90 307 318 351 330 310 305 323 68 20 29 283 278 250 145 143 137 152 170 161 152 175 170 169 186 185 180 191 195 192 196 206 206 203 206 208 208 207 204 205 206 207 209 211 211 211 211 208 210 210 210 207 200 196 195 200 210 215 221 225 228 236 244 246 245 242 229 204 198 200 194 200 201 206 234 257 255 222 206 163 127 110
290 320 355 293 309 301 291 276 292 316 302 44 93 140 118 135 30 0 340 305 305 311 122 344 10 38 274 268 284 143 153 160 168 170 150 149 174 175 166 187 196 181 194 203 197 197 203 209 209 210 211 208 207 207 208 209 210 211 213 213 212 211 210 210 210 208 204 199 201 204 207 212 218 223 227 229 235 242 244 243 240 228 208 202 202 197 203 200 206 235 247 232 212 197 166 137 122
317 324 346 283 295 292 271 246 290 330 306 56 111 146 114 242 164 179 281 282 294 97 171 243 162 117 290 285 302 144 175 183 178 167 164 169 174 180 171 184 204 186 196 207 201 202 201 208 213 213 212 206 205 208 210 212 213 213 215 215 213 212 211 210 209 206 204 204 208 211 213 217 223 226 229 232 236 240 241 241 238 227 209 200 202 197 201 195 199 232 241 228 210 193 169 141 126
13 327 330 264 282 286 267 241 253 240 312 66 143 130 55 291 117 180 253 239 293 309 290 220 184 214 272 281 272 136 168 179 176 174 179 183 175 183 184 189 204 193 198 207 207 207 200 203 209 210 208 204 203 207 211 212 214 215 216 217 214 213 212 211 210 208 208 210 213 216 220 223 227 230 231 235 238 241 241 240 235 224 208 197 200 196 199 191 198 232 238 227 216 193 171 141 122
53 344 261 259 263 266 274 282 280 291 332 10 172 136 46 305 114 155 0 200 273 284 268 243 228 225 237 254 249 179 181 182 176 180 179 189 185 186 195 199 205 201 204 206 208 210 203 200 203 206 205 203 203 207 211 213 215 217 218 217 214 214 213 213 212 211 213 215 218 221 225 227 229 230 232 236 238 240 240 237 231 222 207 197 200 194 196 189 200 234 236 227 220 201 180 133 109
186 198 217 246 246 257 329 331 328 356 339 336 322 327 322 313 311 113 10 261 251 270 268 258 247 240 237 245 244 206 191 189 185 189 185 189 190 189 199 205 207 209 211 210 208 208 206 202 200 203 204 204 205 207 209 212 215 216 217 216 214 215 214 215 215 216 218 220 222 224 228 228 229 229 230 234 236 237 238 234 228 220 202 198 200 192 193 189 201 231 234 227 219 219 212 141 96
203 237 237 246 251 275 317 311 320 350 326 318 316 322 330 327 330 15 287 276 279 283 279 278 270 258 246 243 230 194 187 196 194 197 196 194 194 195 200 203 207 210 212 215 213 210 207 204 201 201 203 205 206 206 207 209 214 215 216 217 217 217 218 219 220 221 223 225 226 226 227 228 229 232 233 236 237 237 238 232 225 214 197 199 202 196 193 187 202 229 231 224 216 223 224 195 160
208 221 243 249 262 286 301 307 318 324 320 316 309 333 332 306 307 296 272 280 278 274 275 282 279 272 276 274 233 189 190 201 200 204 207 208 207 206 207 203 206 210 214 221 220 215 209 207 206 204 203 204 205 205 206 207 211 216 216 218 220 220 221 222 223 225 226 227 227 226 225 225 226 229 233 235 234 235 234 225 217 208 198 202 206 204 203 200 211 226 225 219 216 222 224 211 199
203 196 231 259 288 301 302 308 313 320 338 328 307 316 305 290 290 269 276 284 263 255 262 268 275 285 303 316 315 238 205 202 201 206 214 221 220 220 221 216 217 219 218 220 220 217 213 210 208 207 205 203 204 204 205 206 207 213 215 216 219 220 222 222 223 224 225 225 225 225 223 222 221 222 223 227 229 229 227 217 209 205 202 206 210 210 212 215 219 224 220 216 216 218 220 216 216
236 236 246 262 282 287 283 292 308 358 345 304 289 291 294 297 291 262 255 262 253 255 268 273 280 291 295 300 308 302 277 230 203 203 212 221 226 228 230 230 231 227 215 211 215 219 217 213 210 208 206 204 205 204 206 207 205 209 213 214 214 217 221 222 222 221 222 221 222 223 221 217 217 217 218 222 223 223 221 215 207 205 205 209 213 214 217 221 223 222 217 214 217 214 211 211 214
226 248 254 263 271 276 280 290 302 87 305 285 280 289 298 294 284 273 254 253 256 257 263 270 273 276 281 286 287 283 279 263 224 210 217 222 226 228 230 229 230 226 212 208 213 218 218 216 212 210 207 206 207 206 206 208 207 209 211 211 212 215 218 220 221 220 219 218 219 220 219 215 213 213 214 218 217 216 217 214 209 206 208 211 213 216 220 223 223 222 216 212 216 212 209 209 208
240 247 263 275 277 276 277 287 286 240 270 273 277 290 284 278 282 285 269 261 264 265 265 268 270 271 273 275 271 266 265 264 247 232 232 234 235 235 233 229 228 227 217 211 213 214 217 217 214 211 209 207 207 206 207 208 209 210 211 212 214 215 214 215 217 217 217 216 217 217 216 213 209 208 210 215 212 209 213 213 209 206 208 213 214 215 219 223 222 221 216 209 213 213 212 212 210
259 260 266 269 268 276 282 287 285 273 268 265 269 273 267 270 281 281 274 270 269 267 268 268 269 270 268 265 262 260 258 258 254 243 238 238 241 240 236 230 226 224 219 217 216 212 216 219 215 212 211 209 207 207 207 209 210 210 210 211 215 214 211 213 214 214 214 213 214 214 213 209 204 204 207 212 210 204 207 210 208 206 207 213 216 212 214 221 220 218 216 209 213 216 215 215 216
259 278 295 296 291 296 298 294 286 277 270 256 251 262 265 270 283 275 266 266 267 262 260 262 265 264 259 260 259 253 250 250 251 248 243 238 235 230 228 227 223 222 222 221 219 215 215 218 216 214 213 212 208 207 207 208 209 209 210 210 213 213 210 213 215 214 212 211 212 211 211 208 204 204 205 209 209 202 202 206 207 206 206 212 216 210 209 218 219 215 214 212 215 218 216 217 219
329 320 314 305 297 291 282 276 272 267 263 252 241 255 265 269 276 272 263 262 267 266 263 260 264 266 262 266 267 262 253 245 245 247 248 239 225 221 221 223 223 226 226 222 221 220 216 215 217 216 215 214 210 208 208 208 209 209 211 210 212 213 211 212 213 213 212 211 212 211 210 208 205 205 204 207 209 203 201 204 206 205 205 210 215 210 209 216 218 215 214 216 218 217 217 218 220
2 344 317 293 286 280 270 266 264 259 250 236 225 250 271 275 248 252 260 265 267 268 271 268 261 264 267 268 268 268 263 255 250 242 236 234 226 222 219 221 227 232 232 229 227 222 217 216 217 217 215 213 211 209 209 209 210 210 211 211 211 212 212 212 212 212 212 211 211 211 210 209 208 206 204 207 209 204 202 204 204 204 204 208 212 211 212 216 216 215 216 218 217 216 218 218 219
350 350 304 284 281 273 266 261 256 252 236 173 158 258 272 261 239 245 254 258 264 261 263 268 262 259 259 262 266 261 262 266 261 245 234 239 236 229 225 228 234 239 240 239 235 225 221 219 217 217 214 213 212 210 210 210 210 211 211 212 211 210 211 212 212 212 212 210 211 213 211 209 210 208 206 208 210 206 205 204 204 204 206 209 212 212 213 214 212 212 213 214 213 213 216 216 216
283 258 260 280 288 273 268 263 247 244 212 119 114 229 255 260 260 265 266 259 286 283 272 273 267 266 267 270 277 272 269 271 271 267 260 258 249 235 234 239 243 255 258 246 236 230 227 222 219 218 214 212 213 211 210 211 211 212 212 213 212 211 212 213 211 211 211 211 212 215 214 212 212 210 208 209 211 210 208 207 207 207 209 211 213 214 214 212 210 210 210 209 208 211 216 215 213
267 260 244 259 278 272 276 274 206 170 215 119 121 227 249 272 276 281 301 351 302 295 282 276 270 270 272 270 273 273 275 269 263 266 271 294 331 296 271 280 270 279 286 265 240 230 227 225 219 217 213 212 213 211 210 212 212 212 214 214 214 213 213 214 212 212 214 214 215 217 216 214 213 212 210 211 212 213 212 210 210 211 211 213 214 216 215 213 211 212 212 209 206 209 215 216 213
257 264 258 229 237 265 279 279 175 149 274 149 130 225 243 251 270 293 330 324 302 294 279 276 274 274 277 277 275 274 278 282 286 306 3 32 35 32 28 21 13 1 332 310 279 218 215 224 219 215 214 213 213 212 210 211 212 212 213 214 214 214 213 214 214 214 216 217 218 218 217 215 215 213 212 214 216 216 215 213 213 214 213 214 216 217 216 214 212 213 214 213 210 208 212 215 212
240 236 256 245 245 260 271 289 175 139 115 189 185 226 247 245 271 288 297 289 283 281 275 272 272 275 280 282 282 279 283 322 4 28 37 40 37 32 31 27 22 22 22 9 356 153 185 219 215 211 215 215 215 213 210 210 210 209 212 214 214 215 216 215 215 215 216 219 221 222 222 220 219 218 217 220 221 219 218 217 216 216 215 216 217 217 217 216 214 213 214 215 216 212 210 212 207
246 235 250 251 260 283 295 321 9 127 135 215 217 227 247 249 256 267 270 265 262 264 269 270 273 281 282 284 294 291 316 35 39 40 41 42 40 36 35 34 30 30 30 30 33 60 77 106 179 191 209 216 215 213 210 207 205 203 206 210 213 215 218 217 217 219 219 222 224 224 226 225 224 224 223 224 224 222 220 219 219 217 216 216 217 218 217 216 215 216 215 215 216 214 211 211 207
266 270 279 284 285 301 300 300 322 310 275 265 256 252 260 268 275 281 277 271 265 262 269 277 285 290 288 302 329 345 44 56 49 46 45 45 43 37 38 42 43 41 38 40 49 59 64 73 105 143 187 203 206 207 204 202 200 194 194 200 205 207 211 213 215 220 223 224 225 226 230 231 230 228 227 226 225 224 222 221 221 219 218 217 217 218 216 214 214 215 216 215 213 215 217 215 210
266 274 281 288 287 290 290 287 291 294 285 274 272 276 287 300 299 287 276 271 266 262 272 282 283 287 301 350 30 49 62 62 56 51 45 41 40 38 39 43 46 46 44 45 50 55 61 72 85 90 115 161 178 182 182 190 195 194 193 197 202 206 211 212 211 214 220 225 229 231 235 237 235 231 229 228 227 226 225 224 224 223 221 219 217 217 216 216 215 215 216 215 209 208 215 215 210
271 279 277 279 281 280 285 285 279 279 279 276 285 295 302 305 290 276 271 272 273 270 266 265 272 294 16 51 59 66 69 67 62 55 46 37 35 34 37 40 44 45 43 44 45 46 51 61 73 79 93 125 146 156 163 174 183 188 194 202 207 212 219 222 222 221 221 227 234 236 237 239 238 236 234 231 229 228 228 227 226 226 225 221 221 222 221 220 219 217 216 215 209 203 204 208 206
287 283 279 278 273 273 274 275 277 280 281 289 304 297 297 295 281 274 274 277 275 262 251 257 284 30 60 60 63 69 67 60 57 53 45 37 32 31 34 38 41 41 40 42 42 42 45 52 59 69 77 88 108 126 143 157 165 170 175 188 201 208 220 228 232 234 233 235 242 243 242 243 243 242 240 236 233 230 229 229 228 228 227 225 226 226 225 222 220 217 214 211 209 206 204 202 200
273 273 277 275 267 278 274 266 275 303 64 306 308 297 290 282 274 274 276 273 261 252 254 302 63 68 55 54 64 67 60 51 48 45 42 38 32 30 31 34 38 40 40 41 42 42 43 45 50 58 61 64 79 91 101 121 136 147 148 140 153 162 168 193 208 222 231 234 239 243 246 249 250 248 245 241 237 234 233 232 231 231 230 228 226 225 224 222 219 216 214 212 207 205 206 203 203
248 254 266 269 268 274 268 277 326 359 335 300 300 293 284 276 273 274 267 251 258 276 57 68 75 76 65 63 62 60 60 55 49 44 38 37 35 33 32 33 35 37 38 39 39 40 39 42 47 51 52 55 61 65 74 87 111 137 151 142 142 153 160 191 213 224 233 235 235 239 245 250 252 253 250 246 243 240 239 237 235 234 234 232 229 227 224 222 220 217 216 214 207 200 202 205 207
254 245 250 263 270 269 274 332 349 343 320 303 308 300 268 265 270 277 264 239 285 35 73 71 66 69 68 66 60 57 60 58 55 49 37 36 38 37 36 36 37 37 36 35 36 38 39 43 46 47 48 51 50 48 57 65 74 92 100 97 100 111 130 231 263 263 253 250 247 248 252 254 255 255 254 252 249 246 244 241 239 236 236 235 232 230 229 226 224 221 218 215 211 207 205 204 206
274 261 280 300 307 314 332 356 360 351 316 307 13 349 268 285 311 308 290 291 37 56 68 63 57 60 58 59 57 55 55 54 56 54 45 41 41 42 40 39 39 39 37 36 38 40 41 44 46 47 48 49 46 43 49 56 59 62 63 66 69 63 50 30 349 332 286 272 277 273 267 266 265 263 258 257 255 251 248 245 243 240 238 238 236 234 233 230 228 226 222 218 216 215 211 205 206
269 278 340 356 9 10 6 7 8 336 274 274 346 328 265 286 305 277 271 291 77 67 63 61 60 58 57 58 56 55 54 50 50 50 49 46 42 42 41 39 40 41 40 41 42 42 43 44 45 46 48 50 49 45 44 48 51 51 51 53 58 56 45 31 14 6 353 325 315 301 289 284 282 279 271 265 261 257 254 250 247 244 241 241 241 238 235 233 232 230 227 223 220 219 215 209 210
240 254 348 13 29 4 336 337 264 240 268 277 251 228 254 271 252 252 249 128 89 75 68 68 67 64 64 64 59 58 57 52 50 46 43 43 42 42 41 41 43 44 44 44 44 43 43 44 45 45 46 48 50 49 46 44 43 42 42 44 49 52 47 36 20 9 0 347 328 304 299 295 290 291 288 279 271 266 262 258 254 249 245 243 243 242 239 238 237 234 232 228 225 222 219 216 216
220 206 352 15 6 261 258 242 243 254 286 278 224 188 232 269 248 251 229 118 95 91 90 80 73 69 67 68 63 57 54 52 52 50 45 42 42 43 44 44 46 46 46 46 46 45 44 44 45 46 45 45 47 49 49 46 43 39 37 36 37 39 40 37 30 19 6 356 344 320 306 301 294 292 294 291 285 276 270 267 262 257 252 248 245 244 244 242 240 238 236 233 228 226 224 222 222
205 239 304 300 249 233 233 229 240 276 266 250 222 184 190 284 271 276 94 111 116 110 100 88 78 69 60 64 63 55 51 49 48 50 47 44 44 45 46 47 47 46 46 47 47 46 45 44 44 45 44 43 45 47 48 47 44 40 36 33 32 32 35 37 34 26 13 2 354 342 328 317 305 297 294 296 296 291 281 274 269 265 261 257 252 248 246 245 243 241 241 240 235 230 228 226 226
176 285 310 297 264 230 213 210 194 289 258 256 242 196 177 274 293 356 52 121 143 132 123 109 87 72 62 57 57 56 51 47 48 48 44 43 45 45 45 46 45 45 45 45 45 44 45 45 45 45 43 42 44 45 47 47 45 42 38 34 30 28 31 36 35 28 18 9 1 354 345 335 324 310 300 295 297 301 295 284 278 274 270 265 259 255 252 250 248 246 244 244 242 236 232 231 231
122 269 312 320 297 234 167 129 127 216 249 294 327 173 171 217 290 33 53 89 126 131 137 125 102 83 72 60 57 57 52 51 49 45 41 38 37 35 35 38 38 38 39 39 39 40 41 42 43 44 41 39 40 41 43 44 43 42 39 37 34 30 31 36 36 28 19 12 5 357 351 345 338 329 317 306 300 298 297 293 286 280 277 273 268 264 261 257 254 251 248 247 247 244 238 234 234
153 197 212 322 324 277 172 249 187 216 227 198 44 38 129 232 285 308 63 66 71 92 111 118 115 105 90 72 63 59 56 55 49 44 41 36 32 28 27 30 32 33 33 34 35 36 37 37 39 41 39 37 37 37 38 39 38 38 37 36 35 33 35 37 34 27 19 12 4 356 352 347 342 339 333 326 319 309 298 293 290 286 284 283 279 274 269 266 261 257 253 250 249 249 244 239 237
178 194 185 190 298 308 255 267 259 241 229 220 37 24 317 230 280 306 94 86 72 85 94 103 108 106 101 94 82 68 63 58 53 50 43 37 32 28 28 31 31 31 31 32 33 34 34 34 35 36 36 37 37 34 32 33 33 33 33 34 34 33 35 36 33 28 22 16 8 360 355 350 344 339 334 329 327 324 313 300 293 289 289 288 285 281 276 272 268 262 258 255 252 251 250 247 243
197 213 147 175 196 235 247 250 258 262 264 285 322 351 229 201 232 83 100 98 88 90 95 98 97 98 98 96 86 72 62 54 52 53 49 39 33 31 34 34 32 31 31 32 33 33 34 33 32 33 33 34 36 33 30 28 28 29 30 31 32 32 33 34 35 34 29 22 15 6 359 354 347 340 336 330 326 324 321 312 299 292 293 292 288 285 280 276 273 267 263 260 257 255 253 252 249
274 30 76 180 204 196 246 258 236 270 304 281 277 262 252 192 111 107 102 95 92 92 98 99 94 91 87 80 72 62 52 45 40 46 47 39 36 37 39 37 34 32 31 32 34 34 35 34 34 35 33 33 34 33 30 26 26 29 30 29 28 28 29 30 32 33 32 28 23 17 9 2 355 347 341 336 331 327 323 317 306 297 296 296 293 289 284 280 276 272 268 264 261 259 256 255 254
28 58 161 247 232 141 131 296 288 90 273 260 232 254 278 253 122 118 105 94 90 87 87 90 87 83 79 68 64 56 47 45 37 40 42 34 35 38 39 37 34 33 34 36 37 37 38 38 38 38 37 37 37 35 32 28 28 30 30 29 26 25 25 26 27 28 27 27 26 24 19 15 11 3 355 347 340 333 326 319 311 302 298 297 296 294 290 286 281 275 271 268 265 264 261 258 256
126 183 216 260 351 67 117 279 332 203 251 259 242 259 262 232 216 145 125 110 99 91 81 84 83 80 79 71 66 57 50 45 37 43 43 37 39 37 36 34 33 35 36 36 38 40 41 41 41 39 36 36 35 35 34 30 29 30 30 28 26 24 23 22 23 23 22 22 20 18 16 15 14 12 8 4 356 348 339 329 319 311 305 302 300 298 296 292 286 280 274 271 269 266 264 262 260
130 192 247 84 50 318 139 148 205 236 255 261 247 260 256 223 227 173 151 133 120 122 112 107 104 98 96 90 84 76 63 42 39 55 42 36 43 36 30 29 31 34 32 30 32 35 38 38 38 37 32 30 30 31 32 30 29 29 29 29 26 25 23 21 21 20 19 18 15 12 10 8 7 8 8 7 4 0 354 345 334 322 316 311 308 303 300 296 290 284 280 275 273 269 266 264 262
85 156 321 65 145 207 200 185 206 228 255 264 260 268 267 256 308 192 142 134 135 139 135 129 127 125 129 131 130 135 152 190 190 173 181 167 133 64 32 23 20 26 25 26 26 26 28 26 27 28 22 21 24 25 27 27 25 24 24 23 19 18 18 18 20 20 18 16 12 9 6 3 1 0 -0 360 360 359 357 353 347 338 329 322 317 310 304 299 292 287 283 279 277 273 269 266 264
92 204 245 210 206 231 264 253 229 214 249 260 261 265 256 270 329 58 107 116 127 129 130 136 139 143 156 164 168 177 185 189 189 180 171 166 166 167 135 324 344 9 16 23 27 24 22 16 14 15 11 13 17 17 19 19 18 16 13 9 6 6 7 8 12 14 12 10 7 5 2 359 357 356 356 355 354 353 352 350 348 345 341 334 326 318 311 304 296 290 285 280 278 274 270 268 267
124 173 216 214 220 190 272 256 233 210 232 239 250 259 242 223 296 77 101 109 114 124 138 147 156 163 164 165 167 170 170 168 165 158 153 151 149 150 171 319 24 33 25 26 30 22 16 13 7 6 7 8 8 7 9 10 11 10 5 2 0 0 0 0 3 4 2 0 359 356 353 351 351 352 351 350 349 347 346 345 343 342 342 339 333 325 317 308 300 295 289 284 280 275 270 268 266